Weather in Tsumeb

Namibia     19˚14′51″S   17˚42′45″E
temp.,
°C
wind,
m/s
gust,
m/s
humid.,
%
clouds,
%
prec.,
mm/h
press.,
hPa
HPBL,
m
2 december, wed
wed223:00+26˚wsw13260 0.0 100863
02:00+25˚sse6122320 0.0 1008216
05:00+23˚ese452650 0.0 100775
08:00+25˚e683528 0.0 1009460
11:00+31˚ne56350 0.0 10081704
14:00+32˚ne542726 0.0 10052667
17:00+32˚nne552995 0.0 10042300
20:00+22˚sse9115898 2.9 1007240
3 december, thu
thu323:00+25˚e4544100 1.8 101087
02:00+24˚sw234993 1.8 100943
05:00+24˚s345190 0.0 100992
08:00+26˚ene124389 0.0 1010140
11:00+30˚n443381 0.0 10091234
14:00+33˚ne432266 0.0 10063005
17:00+30˚s332789 0.0 1005410
20:00+27˚nw124291 0.0 100735
4 december, fri
fri423:00+25˚wsw364120 0.0 1010180
02:00+23˚nnw015232 0.0 101038
05:00+23˚n1363100 0.1 1010190
08:00+24˚sw1153100 0.1 1011217
11:00+29˚ne2233100 0.0 10101981
14:00+32˚nne222683 0.0 10072861
17:00+29˚ese653596 0.1 1005662
20:00+25˚n484698 0.4 1007209
5 december, sat
sat523:00+25˚sw344497 0.0 100978
02:00+26˚s591799 0.0 1009180
05:00+22˚ne0130100 0.0 100937
08:00+25˚nw0123100 0.0 1010317
11:00+29˚nne3322100 0.0 10091259
14:00+32˚nne222192 0.0 10053019
17:00+33˚ese122099 0.0 10033137
20:00+29˚n2327100 0.0 100597
6 december, sun
sun623:00+27˚sw481477 0.0 1009263
02:00+24˚s8132060 0.0 1009312
05:00+24˚sse372597 0.0 1009266
08:00+26˚sse132198 0.0 1011431
11:00+31˚se2316100 0.0 10082165
14:00+34˚wnw431275 0.0 10063400
17:00+35˚w56889 0.0 10033815
20:00+28˚wnw5111187 0.0 1005278